Powrót do katalogu

COSMOS 2129

AktywnyNawigacjaLEO
NORAD 21104·PAYLOAD·🇷🇺 Russia

Wystrzelony Feb 12, 1991 z Plesetsk Cosmodrome

Loading…

Następne Przeloty (najbliższe 24 godziny)

TLE

ŚwieżeSource: Space-Track

Epoka: Sep 14, 2026, 00:48 UTC

1 21104U 91009E   26257.03351705 -.00000020  00000-0 -26130-4 0  9993
2 21104  74.0270  80.4279 0025283 236.3237 288.6021 12.53745287628654

Śledź COSMOS 2129 w czasie rzeczywistym z AllMySat

Download on the App Store